Location: Lombard
(41.8800°N, 88.0080°W)
Time: 20:57:07
(UTC-06:00)

Tiangong - Visible Passes

Search period start: 26 November 2022 00:00
Search period end: 06 December 2022 00:00
Orbit: 386 x 393 km, 41.5° (Epoch: 27 November)

Date Brightness Start Highest point End Pass type
(mag) Time Alt. Az. Time Alt. Az. Time Alt. Az.
27 Nov 0.7 18:29:23 10° SSW 18:29:50 12° S 18:29:50 12° S visible
28 Nov 0.4 17:32:16 10° SSE 17:33:13 11° SE 17:34:09 10° SE visible
29 Nov -0.7 18:07:50 10° SW 18:10:16 28° S 18:10:16 28° S visible
30 Nov -0.1 17:09:03 10° SSW 17:11:21 19° SSE 17:13:38 10° ESE visible
30 Nov 0.4 18:44:42 10° WSW 18:45:55 21° WSW 18:45:55 21° WSW visible
01 Dec -1.5 17:45:01 10° SW 17:48:02 43° SSE 17:48:56 33° ESE visible
02 Dec -1.2 18:21:19 10° WSW 18:23:42 47° WSW 18:23:42 47° WSW visible
03 Dec -1.9 17:20:42 10° WSW 17:23:50 61° SSE 17:25:55 19° E visible
03 Dec 1.0 18:57:23 10° W 18:58:03 15° W 18:58:03 15° W visible
04 Dec -2.3 17:56:19 10° W 17:59:29 85° S 17:59:52 65° E visible
05 Dec -2.0 16:54:51 10° WSW 16:58:01 76° S 17:01:09 10° E visible
05 Dec -0.4 18:31:33 10° W 18:33:26 33° W 18:33:26 33° W visible
